This is the latest recevied weather packets stored in our database for station/object KO4WIL-13. If no packets are shown the sender has not sent any weather packets the latest 1 day(s).
| Time | Temp. | Humidity | Pressure | Rain* | Wind** | Luminosity | Snow |
|---|---|---|---|---|---|---|---|
| 1778058924 | 19.44° C | 69% | 961.6 hPa | 0 mm | 0.89 m/s, 237° | - | - |
| 1778058622 | 18.89° C | 69% | 961.7 hPa | 0 mm | 0.89 m/s, 199° | - | - |
| 1778058320 | 18.89° C | 69% | 961.6 hPa | 0 mm | 0.89 m/s, 219° | - | - |
| 1778058017 | 18.33° C | 70% | 961.5 hPa | 0 mm | 0.89 m/s, 196° | - | - |
| 1778057715 | 18.33° C | 70% | 961.5 hPa | 0 mm | 0.45 m/s, 226° | - | - |
| 1778057413 | 18.33° C | 69% | 961.5 hPa | 0 mm | 0.45 m/s, 189° | - | - |
| 1778057111 | 17.78° C | 68% | 961.7 hPa | 0 mm | 0 m/s | - | - |
| 1778056809 | 17.78° C | 68% | 961.7 hPa | 0 mm | 0.45 m/s, 210° | - | - |
| 1778056507 | 17.78° C | 67% | 961.6 hPa | 0 mm | 0 m/s | - | - |
| 1778056205 | 17.78° C | 68% | 961.4 hPa | 0 mm | 0 m/s | - | - |
| 1778055903 | 17.78° C | 67% | 961.4 hPa | 0 mm | 0.45 m/s, 188° | - | - |
| 1778055601 | 17.22° C | 68% | 961.5 hPa | 0 mm | 0.45 m/s, 226° | - | - |
| 1778055299 | 16.67° C | 69% | 961.6 hPa | 0 mm | 0 m/s | - | - |
| 1778054996 | 16.11° C | 70% | 961.8 hPa | 0 mm | 0.45 m/s, 236° | - | - |
| 1778054694 | 15.56° C | 73% | 961.8 hPa | 0 mm | 0 m/s | - | - |
| 1778054392 | 15.56° C | 75% | 961.8 hPa | 0 mm | 0 m/s | - | - |
| 1778054090 | 15.56° C | 80% | 961.8 hPa | 0 mm | 0 m/s | - | - |
| 1778053788 | 15.56° C | 79% | 961.8 hPa | 0 mm | 0 m/s | - | - |
| 1778053486 | 16.11° C | 78% | 961.8 hPa | 0 mm | 0 m/s | - | - |
| 1778053184 | 16.11° C | 72% | 961.9 hPa | 0 mm | 0 m/s | - | - |
| 1778052882 | 16.11° C | 71% | 961.9 hPa | 0 mm | 0 m/s | - | - |
| 1778052580 | 16.11° C | 72% | 961.9 hPa | 0 mm | 0 m/s | - | - |
| 1778052278 | 16.11° C | 73% | 961.9 hPa | 0 mm | 0 m/s | - | - |
| 1778051977 | 16.11° C | 77% | 962 hPa | 0 mm | 0 m/s | - | - |
| 1778051674 | 16.11° C | 73% | 961.9 hPa | 0 mm | 0 m/s | - | - |
* Rain latest hour (hover to see other rain measurements)
** Current wind speed in m/s (hover to see current wind gust speed)